sat.trackr.live / text

‹ back to catalog

STARLINK-31486

NORAD 59181 · 2024-045D

PAYLOAD ACTIVE UNKNOWN

§ Identity

Operator
Country
US
Launch date
2024-03-10
Launch site
AFETR
Launch vehicle
Mass (kg)
RCS (m²)

Purposes: comms

External: N2YO · Heavens-Above · Gunter

§ Orbital elements

Epoch: 2026-09-20T04:18:42.318144Z

Period
94.27 min
Inclination
43.0040°
Eccentricity
0.0001081
Mean motion
15.27572249 rev/d
Perigee alt
482.3 km
Apogee alt
483.8 km
Semi-major
6,861.2 km
B*
-1.3654e-5
RAAN
70.9215°
Arg perigee
269.8395°
Mean anomaly
90.2333°
Rev number
14,294

§ Raw data

STARLINK-314861 59181U 24045D   26263.17965646 -.00000638  00000+0 -13654-4 0  99932 59181  43.0040  70.9215 0001081 269.8395  90.2333 15.27572249142947

JSON: /api/v1/satellites/59181 · /tle

For live sub-satellite position, see the globe view (requires WebGL).

§ Visibility from observer

Set your observer location to see the next 7 days of passes ≥ 10°. The values pass through the URL so the page stays shareable.

No JS? Fill the form by hand. The geolocation button needs JavaScript.